Location: Bretagne
(43.8474°N, 0.4650°W)
Time: 23:21:52
(UTC+00:00)

Envisat - Pass Details

Date: 17 March 2026
Orbit: 761 x 762 km, 98.4° (Epoch: 13 April)

Event Time Altitude Azimuth Distance (km) Brightness Sun altitude
Rises 01:29:30 0° 29° (NNE) 3,233 7.0 -44.1°
Reaches altitude 10° 01:32:33 10° 49° (NE) 2,301 6.0 -43.8°
Enters shadow 01:32:41 10° 50° (NE) 2,269 6.0 -43.8°
